This is the latest recevied weather packets stored in our database for station/object KA1JKB. If no packets are shown the sender has not sent any weather packets the latest 10 day(s).
| Time | Temp. | Humidity | Pressure | Rain* | Wind** | Luminosity | Snow |
|---|---|---|---|---|---|---|---|
| 1787869097 | 26.67° C | 60% | 1012.5 hPa | 0 mm | - | 239 W/m² | - |
| 1787868795 | 26.67° C | 59% | 1012.4 hPa | 0 mm | - | 261 W/m² | - |
| 1787868494 | 26.67° C | 59% | 1012.6 hPa | 0 mm | - | 278 W/m² | - |
| 1787868194 | 26.67° C | 58% | 1012.6 hPa | 0 mm | - | 283 W/m² | - |
| 1787867889 | 26.67° C | 57% | 1012.6 hPa | 0 mm | - | 311 W/m² | - |
| 1787867585 | 27.22° C | 57% | 1012.9 hPa | 0 mm | - | 329 W/m² | - |
| 1787867284 | 26.67° C | 57% | 1012.8 hPa | 0 mm | - | 370 W/m² | - |
| 1787866981 | 27.22° C | 58% | 1012.6 hPa | 0 mm | - | 366 W/m² | - |
| 1787866675 | 27.22° C | 56% | 1012.7 hPa | 0 mm | - | 372 W/m² | - |
| 1787866374 | 27.78° C | 56% | 1012.8 hPa | 0 mm | - | 397 W/m² | - |
| 1787866069 | 27.22° C | 57% | 1012.4 hPa | 0 mm | - | 385 W/m² | - |
| 1787865764 | 26.67° C | 59% | 1012.6 hPa | 0 mm | - | 414 W/m² | - |
| 1787865459 | 27.22° C | 59% | 1012.6 hPa | 0 mm | - | 422 W/m² | - |
| 1787865154 | 26.67° C | 62% | 1012.4 hPa | 0 mm | - | 422 W/m² | - |
| 1787864851 | 26.11° C | 61% | 1012.6 hPa | 0 mm | - | 492 W/m² | - |
| 1787864550 | 25.56° C | 64% | 1012.6 hPa | 0 mm | - | 109 W/m² | - |
| 1787864245 | 26.67° C | 60% | 1012.6 hPa | 0 mm | - | 102 W/m² | - |
| 1787863940 | 26.67° C | 61% | 1012.6 hPa | 0 mm | - | 148 W/m² | - |
| 1787863638 | 27.22° C | 61% | 1012.7 hPa | 0 mm | - | 582 W/m² | - |
| 1787863337 | 27.22° C | 57% | 1012.7 hPa | 0 mm | - | 585 W/m² | - |
| 1787863034 | 26.67° C | 60% | 1012.6 hPa | 0 mm | - | 580 W/m² | - |
| 1787862729 | 26.11° C | 62% | 1012.6 hPa | 0 mm | - | 577 W/m² | - |
| 1787862423 | 27.78° C | 62% | 1012.7 hPa | 0 mm | - | 153 W/m² | - |
| 1787862119 | 27.22° C | 60% | 1012.7 hPa | 0 mm | - | 643 W/m² | - |
| 1787861818 | 27.22° C | 62% | 1012.7 hPa | 0 mm | - | 645 W/m² | - |
* Rain latest hour (hover to see other rain measurements)
** Current wind speed in m/s (hover to see current wind gust speed)